Time,TemperatureF,DewpointF,PressureIn,WindDirection,WindDirectionDegrees,WindSpeedMPH,WindSpeedGustMPH,Humidity,HourlyPrecipIn,Conditions,Clouds,dailyrainin,SolarRadiationWatts/m^2,SoftwareType,DateUTC
2013-07-17 00:01:00,64.0,60.0,-100.00,SE,128,10.0,13.0,88,0.00,,,0.01,0.000000,,2013-07-17 04:01:00,
2013-07-17 00:32:00,64.0,59.0,-100.00,ESE,115,9.0,12.0,83,0.00,,,-99.99,0.000000,,2013-07-17 04:32:00,
2013-07-17 00:43:00,64.0,59.0,-100.00,ESE,115,9.0,12.0,83,0.00,,,-99.99,0.000000,,2013-07-17 04:43:00,
2013-07-17 00:53:00,64.0,59.0,-100.00,ESE,115,9.0,12.0,83,0.00,,,-99.99,0.000000,,2013-07-17 04:53:00,
2013-07-17 01:02:00,64.0,59.0,-100.00,ESE,115,9.0,12.0,83,0.00,,,-99.99,0.000000,,2013-07-17 05:02:00,
2013-07-17 01:32:00,65.0,58.0,-100.00,SE,130,7.0,11.0,77,0.00,,,-99.99,0.000000,,2013-07-17 05:32:00,
2013-07-17 01:43:00,65.0,58.0,-100.00,SE,130,7.0,11.0,77,0.00,,,-99.99,0.000000,,2013-07-17 05:43:00,
2013-07-17 01:52:00,65.0,58.0,-100.00,SE,130,7.0,11.0,77,0.00,,,-99.99,0.000000,,2013-07-17 05:52:00,
2013-07-17 02:01:00,65.0,58.0,-100.00,SE,130,7.0,11.0,77,0.00,,,-99.99,0.000000,,2013-07-17 06:01:00,
2013-07-17 02:33:00,63.0,57.0,-100.00,East,97,11.0,14.0,82,0.00,,,-99.99,0.000000,,2013-07-17 06:33:00,
2013-07-17 02:43:00,63.0,57.0,-100.00,East,97,11.0,14.0,82,0.00,,,-99.99,0.000000,,2013-07-17 06:43:00,
2013-07-17 02:52:00,63.0,57.0,-100.00,East,97,11.0,14.0,82,0.00,,,-99.99,0.000000,,2013-07-17 06:52:00,
2013-07-17 03:01:00,63.0,57.0,-100.00,East,97,11.0,14.0,82,0.00,,,-99.99,0.000000,,2013-07-17 07:01:00,
2013-07-17 03:32:00,63.0,60.0,-100.00,East,83,13.0,16.0,89,0.00,,,-99.99,0.000000,,2013-07-17 07:32:00,
2013-07-17 03:42:00,63.0,60.0,-100.00,East,83,13.0,16.0,89,0.00,,,-99.99,0.000000,,2013-07-17 07:42:00,
2013-07-17 03:52:00,63.0,60.0,-100.00,East,83,13.0,16.0,89,0.00,,,-99.99,0.000000,,2013-07-17 07:52:00,
2013-07-17 04:01:00,63.0,60.0,-100.00,East,83,13.0,16.0,89,0.00,,,-99.99,0.000000,,2013-07-17 08:01:00,
2013-07-17 04:32:00,62.0,60.0,-100.00,East,93,11.0,18.0,93,0.00,,,-99.99,0.000000,,2013-07-17 08:32:00,
2013-07-17 04:43:00,62.0,60.0,-100.00,East,93,11.0,18.0,93,0.00,,,-99.99,0.000000,,2013-07-17 08:43:00,
2013-07-17 04:53:00,62.0,60.0,-100.00,East,93,11.0,18.0,93,0.00,,,-99.99,0.000000,,2013-07-17 08:53:00,
2013-07-17 05:02:00,62.0,60.0,-100.00,East,93,11.0,18.0,93,0.00,,,-99.99,0.000000,,2013-07-17 09:02:00,
2013-07-17 05:22:00,62.0,61.0,-100.00,East,100,11.0,15.0,97,0.00,,,-99.99,0.000000,,2013-07-17 09:22:00,
2013-07-17 05:32:00,62.0,61.0,-100.00,East,100,11.0,15.0,97,0.00,,,-99.99,0.000000,,2013-07-17 09:32:00,
2013-07-17 05:43:00,62.0,61.0,-100.00,East,100,11.0,15.0,97,0.00,,,-99.99,0.000000,,2013-07-17 09:43:00,
2013-07-17 05:52:00,62.0,61.0,-100.00,East,100,11.0,15.0,97,0.00,,,-99.99,0.000000,,2013-07-17 09:52:00,
2013-07-17 06:01:00,62.0,61.0,-100.00,East,100,11.0,15.0,97,0.00,,,-99.99,0.000000,,2013-07-17 10:01:00,
2013-07-17 06:22:00,62.0,61.0,-100.00,ESE,103,13.0,15.0,98,0.00,,,-99.99,0.000000,,2013-07-17 10:22:00,
2013-07-17 06:32:00,62.0,61.0,-100.00,ESE,103,13.0,15.0,98,0.00,,,-99.99,0.000000,,2013-07-17 10:32:00,
2013-07-17 06:43:00,62.0,61.0,-100.00,ESE,103,13.0,15.0,98,0.00,,,-99.99,0.000000,,2013-07-17 10:43:00,
2013-07-17 06:52:00,62.0,61.0,-100.00,ESE,103,13.0,15.0,98,0.00,,,-99.99,0.000000,,2013-07-17 10:52:00,
2013-07-17 07:02:00,62.0,61.0,-100.00,ESE,103,13.0,15.0,98,0.00,,,-99.99,0.000000,,2013-07-17 11:02:00,
2013-07-17 07:32:00,62.0,61.0,-100.00,ESE,104,13.0,16.0,98,0.00,,,-99.99,10.000000,,2013-07-17 11:32:00,
2013-07-17 07:42:00,62.0,61.0,-100.00,ESE,104,13.0,16.0,98,0.00,,,-99.99,10.000000,,2013-07-17 11:42:00,
2013-07-17 07:52:00,62.0,61.0,-100.00,ESE,104,13.0,16.0,98,0.00,,,-99.99,10.000000,,2013-07-17 11:52:00,
2013-07-17 08:01:00,62.0,61.0,-100.00,ESE,104,13.0,16.0,98,0.00,,,-99.99,10.000000,,2013-07-17 12:01:00,
2013-07-17 08:32:00,66.0,63.0,-100.00,ESE,110,12.0,16.0,91,0.00,,,-99.99,158.000000,,2013-07-17 12:32:00,
2013-07-17 08:43:00,66.0,63.0,-100.00,ESE,110,12.0,16.0,91,0.00,,,-99.99,158.000000,,2013-07-17 12:43:00,
2013-07-17 08:53:00,66.0,63.0,-100.00,ESE,110,12.0,16.0,91,0.00,,,-99.99,158.000000,,2013-07-17 12:53:00,
2013-07-17 09:01:00,66.0,63.0,-100.00,ESE,110,12.0,16.0,91,0.00,,,-99.99,158.000000,,2013-07-17 13:01:00,
2013-07-17 09:32:00,65.0,62.0,-100.00,ESE,110,10.0,16.0,90,0.00,,,-99.99,232.000000,,2013-07-17 13:32:00,
2013-07-17 09:43:00,65.0,62.0,-100.00,ESE,110,10.0,16.0,90,0.00,,,-99.99,232.000000,,2013-07-17 13:43:00,
2013-07-17 09:53:00,65.0,62.0,-100.00,ESE,110,10.0,16.0,90,0.00,,,-99.99,232.000000,,2013-07-17 13:53:00,
2013-07-17 10:02:00,65.0,62.0,-100.00,ESE,110,10.0,16.0,90,0.00,,,-99.99,232.000000,,2013-07-17 14:02:00,
2013-07-17 10:32:00,68.0,62.0,-100.00,ESE,108,9.0,14.0,81,0.00,,,-99.99,511.000000,,2013-07-17 14:32:00,
2013-07-17 10:43:00,68.0,62.0,-100.00,ESE,108,9.0,14.0,81,0.00,,,-99.99,511.000000,,2013-07-17 14:43:00,
2013-07-17 10:52:00,68.0,62.0,-100.00,ESE,108,9.0,14.0,81,0.00,,,-99.99,511.000000,,2013-07-17 14:52:00,
2013-07-17 11:02:00,68.0,62.0,-100.00,ESE,108,9.0,14.0,81,0.00,,,-99.99,511.000000,,2013-07-17 15:02:00,
2013-07-17 11:32:00,71.0,64.0,-100.00,East,98,7.0,15.0,79,0.00,,,-99.99,589.000000,,2013-07-17 15:32:00,
2013-07-17 11:43:00,71.0,64.0,-100.00,East,98,7.0,15.0,79,0.00,,,-99.99,589.000000,,2013-07-17 15:43:00,
2013-07-17 11:52:00,71.0,64.0,-100.00,East,98,7.0,15.0,79,0.00,,,-99.99,589.000000,,2013-07-17 15:52:00,
2013-07-17 12:02:00,71.0,64.0,-100.00,East,98,7.0,15.0,79,0.00,,,-99.99,589.000000,,2013-07-17 16:02:00,
2013-07-17 12:33:00,72.0,62.0,-100.00,East,82,6.0,13.0,72,0.00,,,-99.99,841.000000,,2013-07-17 16:33:00,
2013-07-17 12:43:00,72.0,62.0,-100.00,East,82,6.0,13.0,72,0.00,,,-99.99,841.000000,,2013-07-17 16:43:00,
2013-07-17 12:52:00,72.0,62.0,-100.00,East,82,6.0,13.0,72,0.00,,,-99.99,841.000000,,2013-07-17 16:52:00,
2013-07-17 13:02:00,72.0,62.0,-100.00,East,82,6.0,13.0,72,0.00,,,-99.99,841.000000,,2013-07-17 17:02:00,
2013-07-17 13:32:00,74.0,61.0,-100.00,ENE,63,6.0,11.0,64,0.00,,,0.00,949.000000,,2013-07-17 17:32:00,
2013-07-17 13:43:00,74.0,61.0,-100.00,ENE,63,6.0,11.0,64,0.00,,,0.00,949.000000,,2013-07-17 17:43:00,
2013-07-17 13:52:00,74.0,61.0,-100.00,ENE,63,6.0,11.0,64,0.00,,,0.00,949.000000,,2013-07-17 17:52:00,
2013-07-17 14:01:00,74.0,61.0,-100.00,ENE,63,6.0,11.0,64,0.00,,,0.00,949.000000,,2013-07-17 18:01:00,
2013-07-17 14:32:00,73.0,61.0,-100.00,East,83,5.0,12.0,67,0.00,,,0.00,652.000000,,2013-07-17 18:32:00,
2013-07-17 14:43:00,73.0,61.0,-100.00,East,83,5.0,12.0,67,0.00,,,0.00,652.000000,,2013-07-17 18:43:00,
2013-07-17 14:52:00,73.0,61.0,-100.00,East,83,5.0,12.0,67,0.00,,,0.00,652.000000,,2013-07-17 18:52:00,
2013-07-17 15:01:00,73.0,61.0,-100.00,East,83,5.0,12.0,67,0.00,,,0.00,652.000000,,2013-07-17 19:01:00,
2013-07-17 15:32:00,66.0,62.0,-100.00,ENE,64,11.0,15.0,87,0.00,,,0.00,276.000000,,2013-07-17 19:32:00,
2013-07-17 15:43:00,66.0,62.0,-100.00,ENE,64,11.0,15.0,87,0.00,,,0.00,276.000000,,2013-07-17 19:43:00,
2013-07-17 15:53:00,66.0,62.0,-100.00,ENE,64,11.0,15.0,87,0.00,,,0.00,276.000000,,2013-07-17 19:53:00,
2013-07-17 16:02:00,66.0,62.0,-100.00,ENE,64,11.0,15.0,87,0.00,,,0.00,276.000000,,2013-07-17 20:02:00,
2013-07-17 16:33:00,68.0,66.0,-100.00,East,82,7.0,17.0,92,0.00,,,0.00,298.000000,,2013-07-17 20:33:00,
2013-07-17 16:43:00,68.0,66.0,-100.00,East,82,7.0,17.0,92,0.00,,,0.00,298.000000,,2013-07-17 20:43:00,
2013-07-17 16:53:00,68.0,66.0,-100.00,East,82,7.0,17.0,92,0.00,,,0.00,298.000000,,2013-07-17 20:53:00,
2013-07-17 17:02:00,68.0,66.0,-100.00,East,82,7.0,17.0,92,0.00,,,0.00,298.000000,,2013-07-17 21:02:00,
2013-07-17 17:32:00,68.0,63.0,-100.00,ENE,69,7.0,12.0,84,0.00,,,0.00,348.000000,,2013-07-17 21:32:00,
2013-07-17 17:42:00,68.0,63.0,-100.00,ENE,69,7.0,12.0,84,0.00,,,0.00,348.000000,,2013-07-17 21:42:00,
2013-07-17 17:53:00,68.0,63.0,-100.00,ENE,69,7.0,12.0,84,0.00,,,0.00,348.000000,,2013-07-17 21:53:00,
2013-07-17 18:01:00,68.0,63.0,-100.00,ENE,69,7.0,12.0,84,0.00,,,0.00,348.000000,,2013-07-17 22:01:00,
2013-07-17 18:32:00,65.0,63.0,-100.00,East,83,12.0,15.0,92,0.00,,,0.00,77.000000,,2013-07-17 22:32:00,
2013-07-17 18:43:00,65.0,63.0,-100.00,East,83,12.0,15.0,92,0.00,,,0.00,77.000000,,2013-07-17 22:43:00,
2013-07-17 18:53:00,65.0,63.0,-100.00,East,83,12.0,15.0,92,0.00,,,0.00,77.000000,,2013-07-17 22:53:00,
2013-07-17 19:02:00,65.0,63.0,-100.00,East,83,12.0,15.0,92,0.00,,,0.00,77.000000,,2013-07-17 23:02:00,
2013-07-17 19:33:00,64.0,63.0,-100.00,ESE,116,13.0,19.0,98,0.00,,,-99.99,30.000000,,2013-07-17 23:33:00,
2013-07-17 19:43:00,64.0,63.0,-100.00,ESE,116,13.0,19.0,98,0.00,,,-99.99,30.000000,,2013-07-17 23:43:00,
2013-07-17 19:52:00,64.0,63.0,-100.00,ESE,116,13.0,19.0,98,0.00,,,-99.99,30.000000,,2013-07-17 23:52:00,
2013-07-17 20:01:00,64.0,63.0,-100.00,ESE,116,13.0,19.0,98,0.00,,,-99.99,30.000000,,2013-07-18 00:01:00,
2013-07-17 20:33:00,61.0,60.0,-100.00,ENE,57,15.0,22.0,98,0.00,,,0.00,5.000000,,2013-07-18 00:33:00,
2013-07-17 20:43:00,61.0,60.0,-100.00,ENE,57,15.0,22.0,98,0.00,,,0.00,5.000000,,2013-07-18 00:43:00,
2013-07-17 20:52:00,61.0,60.0,-100.00,ENE,57,15.0,22.0,98,0.00,,,0.00,5.000000,,2013-07-18 00:52:00,
2013-07-17 21:01:00,61.0,60.0,-100.00,ENE,57,15.0,22.0,98,0.00,,,0.00,5.000000,,2013-07-18 01:01:00,
2013-07-17 21:32:00,60.0,59.0,-100.00,East,101,17.0,25.0,97,0.00,,,0.00,1.000000,,2013-07-18 01:32:00,
2013-07-17 21:43:00,60.0,59.0,-100.00,East,101,17.0,25.0,97,0.00,,,0.00,1.000000,,2013-07-18 01:43:00,
2013-07-17 21:53:00,60.0,59.0,-100.00,East,101,17.0,25.0,97,0.00,,,0.00,1.000000,,2013-07-18 01:53:00,
2013-07-17 22:02:00,60.0,59.0,-100.00,East,101,17.0,25.0,97,0.00,,,0.00,1.000000,,2013-07-18 02:02:00,
2013-07-17 22:32:00,62.0,54.0,-100.00,East,97,16.0,19.0,75,0.00,,,-99.99,0.000000,,2013-07-18 02:32:00,
2013-07-17 22:43:00,62.0,54.0,-100.00,East,97,16.0,19.0,75,0.00,,,-99.99,0.000000,,2013-07-18 02:43:00,
2013-07-17 22:52:00,62.0,54.0,-100.00,East,97,16.0,19.0,75,0.00,,,-99.99,0.000000,,2013-07-18 02:52:00,
2013-07-17 23:01:00,62.0,54.0,-100.00,East,97,16.0,19.0,75,0.00,,,-99.99,0.000000,,2013-07-18 03:01:00,
2013-07-17 23:32:00,61.0,52.0,-100.00,ESE,111,16.0,19.0,72,0.00,,,0.00,0.000000,,2013-07-18 03:32:00,
2013-07-17 23:43:00,61.0,52.0,-100.00,ESE,111,16.0,19.0,72,0.00,,,0.00,0.000000,,2013-07-18 03:43:00,
2013-07-17 23:52:00,61.0,52.0,-100.00,ESE,111,16.0,19.0,72,0.00,,,0.00,0.000000,,2013-07-18 03:52:00,